#timestamp,LO_Frequency,Hit,StdDev 
1595682015.7,286047006.3,N
1595682035.6,286047003.1,N
1595682055.4,286047007.2,N
1595682075.2,286047005.1,N
1595682095.1,286047005.8,N
1595682096.0,286047005.8,N
1595682115.8,286047012.4,Y
1595682135.7,286047004.0,P
1595682155.5,286047006.0,P
1595682175.3,286047003.2,P
1595682195.2,286047003.2,N
1595682215.9,286046996.8,N
1595682235.7,286047000.8,N
1595682255.6,286046999.6,N
1595682275.4,286047005.8,N
1595682295.2,286047005.4,N
1595682315.1,286047004.6,N
1595682316.0,286047004.6,N
1595682335.8,286047002.5,N
1595682355.7,286047001.7,N
1595682375.5,286047002.7,N
1595682395.3,286047002.1,N
1595682415.2,286047000.9,N
1595682435.0,286046999.4,N
1595682435.9,286046999.4,N
1595682455.8,286046995.7,N
1595682475.6,286046993.3,N
1595682495.4,286046991.7,N
1595682515.3,286046993.1,N
1595682535.1,286046989.4,N
1595682555.9,286046987.3,N
1595682575.7,286046988.2,N
1595682595.5,286046988.4,N
1595682615.4,286046985.8,N
1595682635.2,286046984.8,N
1595682655.0,286046984.6,N
1595682655.9,286046984.6,N
1595682675.8,286046982.4,N
1595682695.6,286046979.3,N
1595682715.5,286046978.1,N
1595682735.3,286046978.4,N
1595682755.1,286046974.1,N
1595682775.9,286046978.2,N
1595682795.7,286046977.9,N
1595682815.5,286046976.2,N
1595682835.4,286046974.4,N
1595682855.2,286046974.3,N
1595682875.1,286046978.2,N
1595682876.0,286046978.2,N
1595682895.8,286046979.0,N
1595682915.6,286046983.5,N
1595682935.5,286046982.5,N
1595682955.3,286046982.4,N
1595682975.1,286046985.1,N
1595682995.9,286046980.7,N
1595683015.7,286046977.5,Y
1595683035.6,286046994.8,P
1595683055.4,286046995.8,N
1595683075.2,286046993.5,N
1595683095.1,286046993.7,N
1595683096.0,286046993.7,N
1595683115.8,286046994.1,N
1595683135.6,286046992.7,N
1595683155.5,286046990.1,N
1595683175.3,286046993.6,N
1595683195.2,286046999.1,N
1595683215.9,286047000.2,N
1595683235.7,286047000.6,N
1595683255.6,286046998.9,N
1595683275.4,286046996.8,N
1595683295.2,286046997.5,N
1595683315.1,286046994.6,N
1595683316.0,286046994.6,N
1595683335.8,286046991.3,N
1595683355.7,286046992.7,N
1595683375.5,286046990.5,N
1595683395.3,286046990.7,N
1595683415.2,286046990.5,N
1595683435.0,286046988.6,N
1595683435.9,286046988.6,N
1595683455.7,286046987.4,Y
1595683475.6,286046992.8,P
1595683495.4,286046992.5,P
1595683515.3,286046992.6,P
1595683535.1,286046991.1,Y
1595683536.0,286046991.1,P
1595683555.8,286046996.2,P
1595683575.7,286047000.8,N
1595683595.5,286047007.6,N
1595683615.3,286047005.5,N
1595683635.2,286047003.6,N
1595683655.0,286047000.3,N
1595683655.9,286047000.3,N
1595683675.8,286046999.1,N
1595683695.6,286046996.9,N
1595683715.4,286046997.9,N
1595683735.3,286046996.9,N
1595683755.1,286046997.9,N
1595683775.8,286046993.3,N
1595683795.7,286046992.3,N
1595683815.5,286046993.1,N
1595683835.4,286046990.0,N
1595683855.2,286046989.2,N
1595683875.0,286046988.8,N
1595683875.9,286046988.8,N
1595683895.8,286046991.0,N
1595683915.6,286046993.1,N
1595683935.4,286046992.9,N
1595683955.3,286046990.9,N
1595683975.1,286046992.6,N
1595683995.9,286046994.1,N
1595684015.7,286046993.1,N
1595684035.5,286046996.1,N
1595684055.4,286046993.0,N
1595684075.2,286046989.4,N
1595684095.0,286046992.8,N
1595684096.0,286046992.8,N
1595684115.8,286046991.8,N
1595684135.6,286046996.4,N
1595684155.5,286046996.2,N
1595684175.3,286046992.3,N
1595684195.1,286046991.5,N
1595684215.9,286046991.2,N
1595684235.7,286046989.1,Y
1595684255.6,286046999.1,P
1595684275.4,286046999.2,N
1595684295.2,286046994.3,N
1595684315.1,286046993.1,N
1595684316.0,286046993.1,N
1595684335.8,286046989.7,Y
1595684355.6,286046992.6,P
1595684375.5,286046993.7,P
1595684395.3,286046993.7,P
1595684415.2,286046993.5,Y
1595684435.9,286046998.7,P
1595684455.7,286047000.5,N
1595684475.6,286046998.6,N
1595684495.4,286047001.4,N
1595684515.2,286047006.0,N
1595684535.1,286047001.3,N
1595684536.0,286047001.3,N
1595684555.8,286047002.3,N
1595684575.7,286047000.6,N
1595684595.5,286047000.2,N
1595684615.3,286047000.6,N
1595684635.2,286047002.5,N
1595684655.0,286047002.8,N
1595684655.9,286047002.8,N
1595684675.8,286046997.9,N
1595684695.6,286046993.8,N
1595684715.4,286046993.2,N
1595684735.3,286046996.4,N
1595684755.1,286046996.4,N
1595684775.8,286046993.6,N
1595684795.7,286046994.1,N
1595684815.5,286046996.1,N
1595684835.3,286046997.8,N
1595684855.2,286046990.2,N
1595684875.0,286046990.4,N
1595684875.9,286046990.4,N
1595684895.8,286046990.7,N
1595684915.6,286046989.0,N
1595684935.4,286046984.2,Y
1595684955.3,286046987.4,P
1595684975.1,286046988.4,N
1595684995.8,286046986.2,P
1595685015.7,286046984.4,Y
1595685035.5,286046986.3,P
1595685055.4,286046997.1,N
1595685075.2,286046999.5,N
1595685095.0,286047000.5,N
1595685095.9,286047000.5,N
1595685115.8,286047001.7,N
1595685135.6,286047005.6,N
1595685155.5,286047010.5,N
1595685175.3,286047010.7,N
1595685195.1,286047008.0,N
1595685215.9,286047008.7,N
1595685235.7,286047007.3,N
1595685255.5,286047004.5,N
1595685275.4,286047000.7,N
1595685295.2,286046999.4,N
1595685315.0,286046999.1,N
1595685316.0,286046999.1,N
1595685335.8,286047000.6,N
1595685355.6,286046996.6,N
1595685375.5,286046994.9,N
1595685395.3,286046994.8,N
1595685415.1,286046993.9,N
1595685435.9,286046994.7,N
1595685455.7,286046996.3,N
1595685475.5,286046994.3,N
1595685495.4,286046994.8,N
1595685515.2,286046993.8,N
1595685535.1,286046991.8,N
1595685536.0,286046991.8,N
1595685555.8,286046990.2,N
1595685575.6,286046992.9,N
1595685595.5,286046990.5,N
